Location: Sungai Buloh
(3.1000°N, 113.0000°E)
Time: 17:11:18
(UTC+00:00)

Cosmos 2074 Rocket - Pass Details

Date: 12 January 2026
Orbit: 966 x 986 km, 82.9° (Epoch: 10 February)

Event Time Altitude Azimuth Distance (km) Brightness Sun altitude
Rises 21:39:53 0° 179° (S) 3,679 7.3 -14.3°
Reaches altitude 10° 21:42:24 10° 177° (S) 2,732 6.7 -13.7°
Maximum altitude 21:48:39 72° 93° (E) 1,029 4.3 -12.3°
Drops below altitude 10° 21:54:53 10° 9° (N) 2,733 6.2 -10.8°
Sets 21:57:24 0° 8° (N) 3,679 6.9 -10.2°
